Weather History for KOXV - March, 2012

Change the Weather History Date:

Saturday, March 17, 2012

  Actual Average Record
Temperature  
Mean Temperature 69 °F -  
Max Temperature 78 °F 48 °F 78 °F (2012)
Min Temperature 60 °F 29 °F 8 °F (1993)
Cooling Degree Days 4    
Growing Degree Days 19 (Base 50)    
Moisture  
Dew Point 57 °F    
Average Humidity 64    
Maximum Humidity 77    
Minimum Humidity 47    
Precipitation  
Precipitation 0.00 in - - ()
Sea Level Pressure  
Sea Level Pressure 29.89 in    
Wind  
Wind Speed 11 mph (South)    
Max Wind Speed 23 mph    
Max Gust Speed 29 mph    
Visibility 10 miles    
Events      
Averages and records for this station are not official NWS values.
T = Trace of Precipitation, MM = Missing Value Source: NWS Daily Summary

Daily Weather History Graph

Daily Weather History Graph

Search for Another Location

Airport or City:

Trip Planner

Search our weather history database for the weather conditions in past years. The results will help you decide how hot, cold, wet, or windy it might be!

Date:

Astronomy

Mar. 17, 2012 Rise Set
Actual Time 7:19 AM CDT 7:21 PM CDT
Civil Twilight 6:52 AM CDT 7:49 PM CDT
Nautical Twilight 6:20 AM CDT 8:21 PM CDT
Astronomical Twilight 5:47 AM CDT 8:54 PM CDT
Moon 4:24 AM CDT (3/17) 2:43 PM CDT (3/17)
Length of Visible Light 12h 56m
Length of Day
12h 01m
Waning Crescent, 23% of the Moon is Illuminated
Mar 17
Waning Crescent
Mar 22
New
Mar 30
First Quarter
Apr 6
Full
Apr 13
Last Quarter

Hourly Weather History & Observations

Time (CDT) Temp. Dew Point Humidity Pressure Visibility Wind Dir Wind Speed Gust Speed Precip Events Conditions
12:15 AM 66.2 °F 55.4 °F 68% 29.91 in 10.0 mi South 9.2 mph - N/A   Clear
12:35 AM 66.2 °F 55.4 °F 68% 29.91 in 10.0 mi South 10.4 mph - N/A   Clear
12:55 AM 66.2 °F 57.2 °F 73% 29.91 in 10.0 mi SSW 8.1 mph - N/A   Clear
1:15 AM 66.2 °F 57.2 °F 73% 29.92 in 10.0 mi SSW 8.1 mph - N/A   Clear
1:35 AM 66.2 °F 57.2 °F 73% 29.92 in 10.0 mi SSW 8.1 mph - N/A   Clear
1:55 AM 66.2 °F 57.2 °F 73% 29.92 in 10.0 mi South 8.1 mph - N/A   Clear
2:15 AM 66.2 °F 57.2 °F 73% 29.92 in 10.0 mi South 6.9 mph - N/A   Clear
2:35 AM 64.4 °F 57.2 °F 77% 29.92 in 10.0 mi South 8.1 mph - N/A   Clear
2:55 AM 64.4 °F 57.2 °F 77% 29.91 in 10.0 mi South 9.2 mph - N/A   Clear
3:15 AM 64.4 °F 57.2 °F 77% 29.91 in 10.0 mi South 8.1 mph - N/A   Clear
3:35 AM 64.4 °F 55.4 °F 73% 29.91 in 10.0 mi South 6.9 mph - N/A   Clear
3:55 AM 64.4 °F 55.4 °F 73% 29.90 in 10.0 mi South 8.1 mph - N/A   Clear
4:15 AM 64.4 °F 55.4 °F 73% 29.90 in 10.0 mi South 6.9 mph - N/A   Clear
4:35 AM 64.4 °F 55.4 °F 73% 29.90 in 10.0 mi South 5.8 mph - N/A   Clear
4:55 AM 62.6 °F 55.4 °F 77% 29.90 in 10.0 mi South 6.9 mph - N/A   Clear
5:15 AM 62.6 °F 55.4 °F 77% 29.90 in 10.0 mi South 6.9 mph - N/A   Clear
5:35 AM 62.6 °F 53.6 °F 72% 29.91 in 10.0 mi SSE 6.9 mph - N/A   Clear
5:55 AM 62.6 °F 53.6 °F 72% 29.91 in 10.0 mi SSE 4.6 mph - N/A   Clear
6:15 AM 60.8 °F 53.6 °F 77% 29.92 in 10.0 mi ESE 4.6 mph - N/A   Clear
6:35 AM 60.8 °F 53.6 °F 77% 29.92 in 10.0 mi SE 5.8 mph - N/A   Clear
6:55 AM 60.8 °F 53.6 °F 77% 29.92 in 10.0 mi SE 5.8 mph - N/A   Clear
7:15 AM 60.8 °F 53.6 °F 77% 29.92 in 10.0 mi SE 6.9 mph - N/A   Clear
7:35 AM 60.8 °F 53.6 °F 77% 29.93 in 10.0 mi SE 6.9 mph - N/A   Clear
7:55 AM 60.8 °F 53.6 °F 77% 29.92 in 10.0 mi SE 9.2 mph - N/A   Clear
8:15 AM 60.8 °F 53.6 °F 77% 29.92 in 10.0 mi SSE 9.2 mph - N/A   Clear
8:35 AM 62.6 °F 55.4 °F 77% 29.92 in 10.0 mi SSE 10.4 mph - N/A   Clear
8:55 AM 64.4 °F 55.4 °F 73% 29.92 in 10.0 mi SSE 13.8 mph 19.6 mph N/A   Clear
9:15 AM 64.4 °F 57.2 °F 77% 29.92 in 10.0 mi South 10.4 mph 19.6 mph N/A   Clear
9:35 AM 66.2 °F 57.2 °F 73% 29.92 in 10.0 mi South 15.0 mph 23.0 mph N/A   Clear
9:55 AM 68.0 °F 57.2 °F 68% 29.92 in 10.0 mi South 13.8 mph 20.7 mph N/A   Clear
10:15 AM 69.8 °F 57.2 °F 64% 29.92 in 10.0 mi South 13.8 mph 21.9 mph N/A   Clear
10:35 AM 71.6 °F 57.2 °F 60% 29.92 in 10.0 mi South 15.0 mph 24.2 mph N/A   Clear
10:55 AM 71.6 °F 57.2 °F 60% 29.92 in 10.0 mi South 17.3 mph 24.2 mph N/A   Scattered Clouds
11:15 AM 73.4 °F 59.0 °F 61% 29.91 in 10.0 mi South 18.4 mph 24.2 mph N/A   Clear
11:35 AM 73.4 °F 59.0 °F 61% 29.91 in 10.0 mi South 18.4 mph 25.3 mph N/A   Clear
11:55 AM 75.2 °F 59.0 °F 57% 29.90 in 10.0 mi South 17.3 mph 24.2 mph N/A   Clear
12:15 PM 75.2 °F 59.0 °F 57% 29.89 in 10.0 mi South 18.4 mph 25.3 mph N/A   Clear
12:35 PM 77.0 °F 60.8 °F 57% 29.88 in 10.0 mi SSE 17.3 mph 24.2 mph N/A   Clear
12:55 PM 78.8 °F 59.0 °F 51% 29.88 in 10.0 mi South 15.0 mph 24.2 mph N/A   Scattered Clouds
1:15 PM 78.8 °F 59.0 °F 51% 29.87 in 10.0 mi South 19.6 mph 26.5 mph N/A   Mostly Cloudy
1:35 PM 75.2 °F 57.2 °F 53% 29.88 in 10.0 mi South 13.8 mph - N/A   Scattered Clouds
1:55 PM 78.8 °F 59.0 °F 51% 29.86 in 10.0 mi South 15.0 mph 25.3 mph N/A   Mostly Cloudy
2:15 PM 78.8 °F 57.2 °F 47% 29.86 in 10.0 mi South 19.6 mph 25.3 mph N/A   Mostly Cloudy
2:35 PM 78.8 °F 57.2 °F 47% 29.85 in 10.0 mi South 18.4 mph 25.3 mph N/A   Scattered Clouds
2:55 PM 78.8 °F 57.2 °F 47% 29.84 in 10.0 mi South 17.3 mph 23.0 mph N/A   Scattered Clouds
3:15 PM 78.8 °F 57.2 °F 47% 29.84 in 10.0 mi South 16.1 mph 24.2 mph N/A   Scattered Clouds
3:35 PM 78.8 °F 57.2 °F 47% 29.83 in 10.0 mi South 12.7 mph - N/A   Scattered Clouds
3:55 PM 78.8 °F 57.2 °F 47% 29.83 in 10.0 mi South 18.4 mph 25.3 mph N/A   Scattered Clouds
4:15 PM 78.8 °F 57.2 °F 47% 29.83 in 10.0 mi South 23.0 mph 27.6 mph N/A   Scattered Clouds
4:35 PM 78.8 °F 57.2 °F 47% 29.83 in 10.0 mi South 18.4 mph 28.8 mph N/A   Scattered Clouds
4:55 PM 78.8 °F 57.2 °F 47% 29.83 in 10.0 mi South 16.1 mph 20.7 mph N/A   Clear
5:15 PM 78.8 °F 57.2 °F 47% 29.83 in 10.0 mi SSE 20.7 mph 27.6 mph N/A   Clear
5:35 PM 77.0 °F 57.2 °F 50% 29.83 in 10.0 mi South 18.4 mph - N/A   Scattered Clouds
5:55 PM 75.2 °F 57.2 °F 53% 29.83 in 10.0 mi South 17.3 mph 21.9 mph N/A   Scattered Clouds
6:15 PM 75.2 °F 57.2 °F 53% 29.84 in 10.0 mi South 18.4 mph 25.3 mph N/A   Clear
6:35 PM 73.4 °F 57.2 °F 57% 29.84 in 10.0 mi SSE 12.7 mph 18.4 mph N/A   Clear
6:55 PM 73.4 °F 57.2 °F 57% 29.84 in 10.0 mi SSE 16.1 mph 19.6 mph N/A   Clear
7:15 PM 71.6 °F 57.2 °F 60% 29.84 in 10.0 mi SSE 9.2 mph - N/A   Clear
7:35 PM 71.6 °F 57.2 °F 60% 29.85 in 10.0 mi SSE 11.5 mph 17.3 mph N/A   Clear
7:55 PM 69.8 °F 57.2 °F 64% 29.85 in 10.0 mi SSE 10.4 mph - N/A   Clear
8:15 PM 69.8 °F 55.4 °F 60% 29.85 in 10.0 mi SE 12.7 mph - N/A   Mostly Cloudy
8:35 PM 69.8 °F 57.2 °F 64% 29.85 in 10.0 mi SE 10.4 mph - N/A   Mostly Cloudy
8:55 PM 69.8 °F 57.2 °F 64% 29.86 in 10.0 mi SSE 11.5 mph - N/A   Scattered Clouds
9:35 PM 66.2 °F 57.2 °F 73% 29.87 in 10.0 mi SSE 8.1 mph - N/A   Clear
9:55 PM 66.2 °F 55.4 °F 68% 29.87 in 10.0 mi SSE 10.4 mph - N/A   Clear
10:15 PM 66.2 °F 55.4 °F 68% 29.87 in 10.0 mi SE 9.2 mph - N/A   Clear
10:35 PM 64.4 °F 53.6 °F 68% 29.88 in 10.0 mi SE 8.1 mph - N/A   Clear
10:55 PM 64.4 °F 51.8 °F 64% 29.88 in 10.0 mi SE 8.1 mph - N/A   Clear
11:15 PM 62.6 °F 51.8 °F 68% 29.89 in 10.0 mi SE 8.1 mph - N/A   Clear
11:35 PM 62.6 °F 51.8 °F 68% 29.89 in 10.0 mi SE 8.1 mph - N/A   Scattered Clouds
11:55 PM 60.8 °F 51.8 °F 72% 29.88 in 10.0 mi SE 6.9 mph - N/A   Scattered Clouds